| time (UTC) | temp C | wind direction | speed KPH | gust KPH | rain 1hr cm | rain 24hr cm | rain mn cm | humidity % | barometer mb |
| 20260503190315 | 17 | 257 | 3.2 | 17.7 | 0.00 | 0.00 | 0.00 | 31 | 1017.2 |
| 20260503185812 | 17 | 298 | 8.0 | 17.7 | 0.00 | 0.00 | 0.00 | 29 | 1017.5 |
| 20260503185308 | 17 | 269 | 12.9 | 22.5 | 0.00 | 0.00 | 0.00 | 30 | 1017.6 |
| 20260503184807 | 16 | 178 | 1.6 | 9.7 | 0.00 | 0.00 | 0.00 | 32 | 1017.7 |
| 20260503184304 | 16 | 264 | 8.0 | 17.7 | 0.00 | 0.00 | 0.00 | 31 | 1018.0 |
| 20260503183759 | 17 | 189 | 4.8 | 14.5 | 0.00 | 0.00 | 0.00 | 32 | 1017.9 |
| 20260503183257 | 16 | 230 | 0.0 | 8.0 | 0.00 | 0.00 | 0.00 | 32 | 1017.9 |
| 20260503182754 | 16 | 301 | 4.8 | 16.1 | 0.00 | 0.00 | 0.00 | 31 | 1018.1 |
| 20260503182253 | 16 | 280 | 4.8 | 20.9 | 0.00 | 0.00 | 0.00 | 31 | 1018.1 |
| 20260503181750 | 16 | 275 | 9.7 | 16.1 | 0.00 | 0.00 | 0.00 | 31 | 1018.2 |
| 20260503181247 | 16 | 240 | 6.4 | 17.7 | 0.00 | 0.00 | 0.00 | 29 | 1018.4 |
| 20260503180743 | 17 | 215 | 4.8 | 17.7 | 0.00 | 0.00 | 0.00 | 29 | 1018.2 |
| 20260503180242 | 17 | 280 | 11.3 | 19.3 | 0.00 | 0.00 | 0.00 | 32 | 1018.3 |
| 20260503175738 | 16 | 189 | 4.8 | 14.5 | 0.00 | 0.00 | 0.00 | 33 | 1018.2 |
| 20260503175236 | 16 | 190 | 6.4 | 20.9 | 0.00 | 0.00 | 0.00 | 32 | 1018.3 |
| 20260503174732 | 16 | 227 | 3.2 | 22.5 | 0.00 | 0.00 | 0.00 | 32 | 1018.5 |
| 20260503174230 | 16 | 238 | 6.4 | 22.5 | 0.00 | 0.00 | 0.00 | 32 | 1018.5 |
| 20260503173730 | 16 | 269 | 8.0 | 17.7 | 0.00 | 0.00 | 0.00 | 32 | 1018.5 |
| 20260503173226 | 16 | 265 | 6.4 | 17.7 | 0.00 | 0.00 | 0.00 | 31 | 1018.6 |
| 20260503172723 | 15 | 274 | 12.9 | 14.5 | 0.00 | 0.00 | 0.00 | 31 | 1018.7 |
| 20260503172220 | 15 | 243 | 11.3 | 17.7 | 0.00 | 0.00 | 0.00 | 30 | 1018.9 |
| 20260503171717 | 15 | 306 | 17.7 | 29.0 | 0.00 | 0.00 | 0.00 | 31 | 1019.1 |
| 20260503171214 | 15 | 271 | 12.9 | 30.6 | 0.00 | 0.00 | 0.00 | 30 | 1019.3 |
| 20260503170711 | 15 | 286 | 11.3 | 17.7 | 0.00 | 0.00 | 0.00 | 31 | 1019.4 |
| 20260503170208 | 15 | 316 | 4.8 | 20.9 | 0.00 | 0.00 | 0.00 | 32 | 1019.2 |
| 20260503160129 | 14 | 307 | 9.7 | 29.0 | 0.00 | 0.00 | 0.00 | 36 | 1020.2 |
| 20260503150559 | 12 | 261 | 12.9 | 16.1 | 0.00 | 0.00 | 0.00 | 42 | 1020.5 |
| 20260503130949 | 8 | 325 | 3.2 | 8.0 | 0.00 | 0.00 | 0.00 | 57 | 1020.8 |
| 20260503130447 | 8 | 38 | 0.0 | 4.8 | 0.00 | 0.00 | 0.00 | 58 | 1020.7 |
| 20260503110343 | 2 | 315 | 1.6 | 3.2 | 0.00 | 0.00 | 0.00 | 86 | 1020.0 |
| 20260503090234 | 2 | 352 | 0.0 | 9.7 | 0.00 | 0.00 | 0.00 | 82 | 1019.4 |
| 20260503081202 | 3 | 21 | 6.4 | 8.0 | 0.00 | 0.00 | 0.00 | 79 | 1019.5 |
| 20260503080657 | 3 | 13 | 3.2 | 6.4 | 0.00 | 0.00 | 0.00 | 79 | 1019.3 |
| 20260503080155 | 3 | 17 | 3.2 | 6.4 | 0.00 | 0.00 | 0.00 | 79 | 1019.3 |
| 20260503072631 | 3 | 9 | 6.4 | 6.4 | 0.00 | 0.00 | 0.00 | 78 | 1019.2 |
| 20260503072128 | 3 | 315 | 1.6 | 6.4 | 0.00 | 0.00 | 0.00 | 79 | 1019.3 |
| 20260503071625 | 2 | 358 | 4.8 | 6.4 | 0.00 | 0.00 | 0.00 | 82 | 1019.3 |
| 20260503071122 | 2 | 315 | 3.2 | 6.4 | 0.00 | 0.00 | 0.00 | 84 | 1019.2 |
| 20260503070619 | 2 | 280 | 3.2 | 4.8 | 0.00 | 0.00 | 0.00 | 84 | 1019.3 |
| 20260503070117 | 2 | 286 | 3.2 | 4.8 | 0.00 | 0.00 | 0.00 | 83 | 1019.3 |
| 20260503055037 | 3 | 274 | 4.8 | 6.4 | 0.00 | 0.00 | 0.00 | 75 | 1019.6 |
| 20260503054533 | 3 | 281 | 4.8 | 8.0 | 0.00 | 0.00 | 0.00 | 74 | 1019.7 |
| 20260503054031 | 3 | 13 | 6.4 | 8.0 | 0.00 | 0.00 | 0.00 | 73 | 1019.8 |
| 20260503053529 | 3 | 300 | 3.2 | 9.7 | 0.00 | 0.00 | 0.00 | 74 | 1019.7 |
| 20260503053026 | 3 | 8 | 6.4 | 8.0 | 0.00 | 0.00 | 0.00 | 74 | 1019.7 |
| 20260503052523 | 3 | 344 | 3.2 | 6.4 | 0.00 | 0.00 | 0.00 | 76 | 1019.8 |
| 20260503052019 | 3 | 327 | 1.6 | 6.4 | 0.00 | 0.00 | 0.00 | 76 | 1019.8 |
| 20260503051514 | 3 | 330 | 4.8 | 4.8 | 0.00 | 0.00 | 0.00 | 75 | 1019.6 |
| 20260503051013 | 3 | 7 | 6.4 | 6.4 | 0.00 | 0.00 | 0.00 | 75 | 1019.6 |
| 20260503050508 | 3 | 356 | 4.8 | 6.4 | 0.00 | 0.00 | 0.00 | 76 | 1019.7 |
| 20260503050006 | 3 | 283 | 4.8 | 4.8 | 0.00 | 0.00 | 0.00 | 78 | 1019.8 |
| 20260503045503 | 3 | 287 | 3.2 | 8.0 | 0.00 | 0.00 | 0.00 | 77 | 1019.7 |
| 20260503045000 | 3 | 345 | 4.8 | 6.4 | 0.00 | 0.00 | 0.00 | 76 | 1019.6 |
| 20260503044456 | 4 | 285 | 6.4 | 6.4 | 0.00 | 0.00 | 0.00 | 74 | 1019.7 |
| 20260503043954 | 4 | 351 | 4.8 | 6.4 | 0.00 | 0.00 | 0.00 | 71 | 1019.6 |
| 20260503043450 | 4 | 16 | 3.2 | 6.4 | 0.00 | 0.00 | 0.00 | 72 | 1019.5 |
| 20260503042947 | 4 | 352 | 6.4 | 6.4 | 0.00 | 0.00 | 0.00 | 72 | 1019.6 |
| 20260503042443 | 4 | 315 | 3.2 | 6.4 | 0.00 | 0.00 | 0.00 | 73 | 1019.6 |
| 20260503041940 | 5 | 14 | 8.0 | 9.7 | 0.00 | 0.00 | 0.00 | 72 | 1019.6 |
| 20260503041437 | 5 | 9 | 8.0 | 9.7 | 0.00 | 0.00 | 0.00 | 71 | 1019.7 |
| 20260503040934 | 5 | 13 | 8.0 | 8.0 | 0.00 | 0.00 | 0.00 | 71 | 1019.7 |
| 20260503040431 | 5 | 15 | 6.4 | 9.7 | 0.00 | 0.00 | 0.00 | 71 | 1019.6 |
| 20260503035929 | 4 | 5 | 8.0 | 8.0 | 0.00 | 0.00 | 0.00 | 73 | 1019.7 |
| 20260503035425 | 4 | 352 | 4.8 | 8.0 | 0.00 | 0.00 | 0.00 | 75 | 1019.7 |
| 20260503034923 | 4 | 14 | 3.2 | 4.8 | 0.00 | 0.00 | 0.00 | 77 | 1019.6 |
| 20260503034420 | 3 | 341 | 0.0 | 3.2 | 0.00 | 0.00 | 0.00 | 77 | 1019.7 |
| 20260503033917 | 4 | 303 | 3.2 | 4.8 | 0.00 | 0.00 | 0.00 | 75 | 1019.8 |
| 20260503033415 | 4 | 288 | 1.6 | 4.8 | 0.00 | 0.00 | 0.00 | 74 | 1019.7 |
| 20260503032913 | 5 | 271 | 6.4 | 6.4 | 0.00 | 0.00 | 0.00 | 73 | 1019.6 |
| 20260503032411 | 5 | 283 | 3.2 | 6.4 | 0.00 | 0.00 | 0.00 | 72 | 1019.8 |
| 20260503031908 | 5 | 284 | 6.4 | 6.4 | 0.00 | 0.00 | 0.00 | 70 | 1019.8 |
| 20260503031406 | 6 | 269 | 4.8 | 6.4 | 0.00 | 0.00 | 0.00 | 69 | 1019.7 |
| 20260503030902 | 6 | 306 | 4.8 | 6.4 | 0.00 | 0.00 | 0.00 | 68 | 1019.9 |
| 20260503030359 | 6 | 345 | 4.8 | 8.0 | 0.00 | 0.00 | 0.00 | 67 | 1019.7 |
| 20260503025855 | 6 | 11 | 1.6 | 8.0 | 0.00 | 0.00 | 0.00 | 67 | 1019.8 |
| 20260503025353 | 6 | 344 | 4.8 | 6.4 | 0.00 | 0.00 | 0.00 | 66 | 1019.8 |
| 20260503024850 | 6 | 1 | 6.4 | 6.4 | 0.00 | 0.00 | 0.00 | 66 | 1019.7 |
| 20260503024346 | 6 | 13 | 4.8 | 6.4 | 0.00 | 0.00 | 0.00 | 66 | 1019.7 |
| 20260503023843 | 6 | 9 | 4.8 | 6.4 | 0.00 | 0.00 | 0.00 | 64 | 1019.7 |
| 20260503023341 | 6 | 353 | 4.8 | 6.4 | 0.00 | 0.00 | 0.00 | 65 | 1019.7 |
| 20260503022838 | 6 | 355 | 4.8 | 6.4 | 0.00 | 0.00 | 0.00 | 65 | 1019.7 |
| 20260503022337 | 6 | 355 | 4.8 | 8.0 | 0.00 | 0.00 | 0.00 | 64 | 1019.8 |
| 20260503021834 | 6 | 35 | 4.8 | 8.0 | 0.00 | 0.00 | 0.00 | 63 | 1019.7 |
| 20260503021330 | 6 | 20 | 8.0 | 8.0 | 0.00 | 0.00 | 0.00 | 63 | 1019.6 |
| 20260503020828 | 6 | 23 | 6.4 | 8.0 | 0.00 | 0.00 | 0.00 | 61 | 1019.5 |
| 20260503020326 | 7 | 3 | 6.4 | 8.0 | 0.00 | 0.00 | 0.00 | 61 | 1019.3 |
| 20260503015822 | 7 | 315 | 0.0 | 4.8 | 0.00 | 0.00 | 0.00 | 61 | 1019.5 |
| 20260503015319 | 7 | 13 | 4.8 | 6.4 | 0.00 | 0.00 | 0.00 | 59 | 1019.4 |
| 20260503014815 | 7 | 3 | 3.2 | 6.4 | 0.00 | 0.00 | 0.00 | 59 | 1019.3 |
| 20260503014313 | 7 | 8 | 3.2 | 6.4 | 0.00 | 0.00 | 0.00 | 59 | 1019.3 |
| 20260503013810 | 7 | 14 | 6.4 | 6.4 | 0.00 | 0.00 | 0.00 | 58 | 1019.4 |
| 20260503013307 | 7 | 12 | 6.4 | 6.4 | 0.00 | 0.00 | 0.00 | 58 | 1019.0 |
| 20260503012804 | 7 | 0 | 1.6 | 3.2 | 0.00 | 0.00 | 0.00 | 56 | 1019.1 |
| 20260503012301 | 7 | 5 | 4.8 | 6.4 | 0.00 | 0.00 | 0.00 | 55 | 1019.0 |
| 20260503011758 | 8 | 347 | 1.6 | 1.6 | 0.00 | 0.00 | 0.00 | 54 | 1018.9 |
| 20260503011255 | 8 | 14 | 0.0 | 1.6 | 0.00 | 0.00 | 0.00 | 52 | 1019.0 |
| 20260503010751 | 8 | 21 | 0.0 | 3.2 | 0.00 | 0.00 | 0.00 | 51 | 1018.8 |
| 20260503010248 | 8 | 333 | 3.2 | 4.8 | 0.00 | 0.00 | 0.00 | 50 | 1018.9 |
| 20260503005746 | 9 | 178 | 0.0 | 1.6 | 0.00 | 0.00 | 0.00 | 49 | 1018.7 |
| 20260503005243 | 9 | 350 | 6.4 | 8.0 | 0.00 | 0.00 | 0.00 | 45 | 1018.8 |
| 20260503004739 | 10 | 356 | 4.8 | 6.4 | 0.00 | 0.00 | 0.00 | 45 | 1018.7 |
| 20260503004237 | 10 | 36 | 6.4 | 8.0 | 0.00 | 0.00 | 0.00 | 44 | 1018.8 |
| 20260503003734 | 10 | 0 | 0.0 | 9.7 | 0.00 | 0.00 | 0.00 | 44 | 1018.8 |
| 20260503003231 | 10 | 274 | 3.2 | 9.7 | 0.00 | 0.00 | 0.00 | 43 | 1018.6 |
| 20260503002728 | 10 | 16 | 8.0 | 14.5 | 0.00 | 0.00 | 0.00 | 42 | 1018.8 |
| 20260503002225 | 10 | 21 | 6.4 | 12.9 | 0.00 | 0.00 | 0.00 | 42 | 1018.7 |
| 20260503001720 | 10 | 341 | 6.4 | 6.4 | 0.00 | 0.00 | 0.00 | 42 | 1018.3 |
| 20260503001217 | 10 | 38 | 8.0 | 9.7 | 0.00 | 0.00 | 0.00 | 41 | 1018.3 |
| 20260503000715 | 10 | 346 | 4.8 | 12.9 | 0.00 | 0.00 | 0.00 | 41 | 1018.4 |
| 20260503000212 | 10 | 17 | 11.3 | 16.1 | 0.00 | 0.00 | 0.00 | 40 | 1018.2 |
| 20260502235709 | 11 | 359 | 6.4 | 12.9 | 0.00 | 0.00 | 0.00 | 39 | 1018.2 |
| 20260502235207 | 11 | 0 | 0.0 | 6.4 | 0.00 | 0.00 | 0.00 | 40 | 1018.1 |
| 20260502234703 | 11 | 57 | 4.8 | 14.5 | 0.00 | 0.00 | 0.00 | 39 | 1018.2 |
| 20260502234200 | 11 | 11 | 8.0 | 16.1 | 0.00 | 0.00 | 0.00 | 38 | 1018.0 |
| 20260502233656 | 11 | 9 | 0.0 | 16.1 | 0.00 | 0.00 | 0.00 | 38 | 1018.0 |
| 20260502233153 | 11 | 0 | 6.4 | 11.3 | 0.00 | 0.00 | 0.00 | 39 | 1018.2 |
| 20260502232649 | 11 | 15 | 4.8 | 16.1 | 0.00 | 0.00 | 0.00 | 38 | 1018.3 |
| 20260502232147 | 11 | 37 | 8.0 | 9.7 | 0.00 | 0.00 | 0.00 | 39 | 1018.2 |
| 20260502231643 | 11 | 15 | 4.8 | 9.7 | 0.00 | 0.00 | 0.00 | 38 | 1018.2 |
| 20260502231141 | 11 | 40 | 9.7 | 14.5 | 0.00 | 0.00 | 0.00 | 38 | 1018.4 |
| 20260502230639 | 11 | 12 | 12.9 | 20.9 | 0.00 | 0.00 | 0.00 | 36 | 1018.1 |
| 20260502230137 | 11 | 68 | 9.7 | 17.7 | 0.00 | 0.00 | 0.00 | 36 | 1018.0 |
| 20260502225632 | 12 | 21 | 4.8 | 20.9 | 0.00 | 0.00 | 0.00 | 36 | 1017.9 |
| 20260502225130 | 12 | 342 | 11.3 | 19.3 | 0.00 | 0.00 | 0.00 | 36 | 1018.0 |
| 20260502224626 | 11 | 13 | 8.0 | 9.7 | 0.00 | 0.00 | 0.00 | 36 | 1018.0 |
| 20260502224123 | 11 | 359 | 0.0 | 9.7 | 0.00 | 0.00 | 0.00 | 36 | 1018.1 |
| 20260502223621 | 11 | 35 | 11.3 | 12.9 | 0.00 | 0.00 | 0.00 | 35 | 1018.0 |
| 20260502223119 | 11 | 45 | 11.3 | 16.1 | 0.00 | 0.00 | 0.00 | 35 | 1018.0 |
| 20260502222616 | 12 | 27 | 14.5 | 20.9 | 0.00 | 0.00 | 0.00 | 34 | 1018.0 |
| 20260502222112 | 12 | 17 | 8.0 | 22.5 | 0.00 | 0.00 | 0.00 | 33 | 1018.1 |
| 20260502221608 | 12 | 41 | 4.8 | 19.3 | 0.00 | 0.00 | 0.00 | 34 | 1017.9 |
| 20260502221106 | 12 | 18 | 4.8 | 17.7 | 0.00 | 0.00 | 0.00 | 34 | 1017.8 |
| 20260502220601 | 12 | 323 | 8.0 | 14.5 | 0.00 | 0.00 | 0.00 | 34 | 1018.0 |
| 20260502220058 | 12 | 2 | 3.2 | 17.7 | 0.00 | 0.00 | 0.00 | 35 | 1018.0 |
| 20260502215555 | 12 | 43 | 16.1 | 27.4 | 0.00 | 0.00 | 0.00 | 33 | 1017.9 |
| 20260502215052 | 13 | 222 | 11.3 | 16.1 | 0.00 | 0.00 | 0.00 | 33 | 1017.9 |
| 20260502214549 | 13 | 338 | 6.4 | 20.9 | 0.00 | 0.00 | 0.00 | 32 | 1017.7 |
| 20260502214047 | 13 | 18 | 9.7 | 17.7 | 0.00 | 0.00 | 0.00 | 32 | 1017.7 |
| 20260502213543 | 12 | 87 | 3.2 | 9.7 | 0.00 | 0.00 | 0.00 | 34 | 1017.6 |
| 20260502213041 | 12 | 1 | 9.7 | 19.3 | 0.00 | 0.00 | 0.00 | 34 | 1017.6 |
| 20260502212540 | 12 | 35 | 6.4 | 19.3 | 0.00 | 0.00 | 0.00 | 33 | 1017.7 |
| 20260502212037 | 12 | 344 | 4.8 | 20.9 | 0.00 | 0.00 | 0.00 | 34 | 1017.8 |
| 20260502211532 | 12 | 1 | 11.3 | 16.1 | 0.00 | 0.00 | 0.00 | 33 | 1017.6 |
| 20260502211030 | 12 | 1 | 4.8 | 8.0 | 0.00 | 0.00 | 0.00 | 34 | 1017.6 |
| 20260502210526 | 12 | 352 | 9.7 | 20.9 | 0.00 | 0.00 | 0.00 | 34 | 1017.7 |
| 20260502210024 | 12 | 20 | 6.4 | 16.1 | 0.00 | 0.00 | 0.00 | 33 | 1017.3 |
| 20260502205520 | 12 | 46 | 9.7 | 12.9 | 0.00 | 0.00 | 0.00 | 33 | 1017.6 |
| 20260502205017 | 13 | 40 | 19.3 | 25.7 | 0.00 | 0.00 | 0.00 | 31 | 1017.8 |
| 20260502204514 | 13 | 16 | 16.1 | 16.1 | 0.00 | 0.00 | 0.00 | 33 | 1017.5 |
| 20260502204012 | 13 | 316 | 8.0 | 22.5 | 0.00 | 0.00 | 0.00 | 32 | 1017.6 |
| 20260502203509 | 13 | 338 | 9.7 | 16.1 | 0.00 | 0.00 | 0.00 | 32 | 1017.7 |
| 20260502203006 | 12 | 46 | 14.5 | 20.9 | 0.00 | 0.00 | 0.00 | 33 | 1017.8 |
| 20260502202502 | 12 | 18 | 4.8 | 25.7 | 0.00 | 0.00 | 0.00 | 32 | 1017.5 |
| 20260502202000 | 12 | 355 | 8.0 | 9.7 | 0.00 | 0.00 | 0.00 | 32 | 1017.5 |
| 20260502201455 | 13 | 262 | 17.7 | 19.3 | 0.00 | 0.00 | 0.00 | 32 | 1017.7 |
| 20260502200953 | 12 | 28 | 9.7 | 16.1 | 0.00 | 0.00 | 0.00 | 34 | 1017.6 |
| 20260502200448 | 12 | 11 | 4.8 | 16.1 | 0.00 | 0.00 | 0.00 | 32 | 1017.8 |
| 20260502195946 | 12 | 250 | 12.9 | 20.9 | 0.00 | 0.00 | 0.00 | 32 | 1017.7 |
| 20260502195444 | 12 | 14 | 9.7 | 24.1 | 0.00 | 0.00 | 0.00 | 33 | 1017.7 |
| 20260502194940 | 12 | 53 | 11.3 | 20.9 | 0.00 | 0.00 | 0.00 | 33 | 1017.8 |
| 20260502194437 | 12 | 338 | 8.0 | 14.5 | 0.00 | 0.00 | 0.00 | 32 | 1017.8 |
| 20260502193932 | 12 | 350 | 8.0 | 9.7 | 0.00 | 0.00 | 0.00 | 33 | 1017.8 |
| 20260502193430 | 12 | 44 | 4.8 | 16.1 | 0.00 | 0.00 | 0.00 | 33 | 1017.8 |
| 20260502192925 | 12 | 30 | 12.9 | 14.5 | 0.00 | 0.00 | 0.00 | 34 | 1017.9 |
| 20260502192422 | 12 | 29 | 9.7 | 19.3 | 0.00 | 0.00 | 0.00 | 32 | 1018.1 |
| 20260502191919 | 12 | 18 | 8.0 | 16.1 | 0.00 | 0.00 | 0.00 | 34 | 1017.9 |
| 20260502191417 | 12 | 18 | 11.3 | 25.7 | 0.00 | 0.00 | 0.00 | 33 | 1017.9 |
| 20260502190915 | 12 | 36 | 9.7 | 17.7 | 0.00 | 0.00 | 0.00 | 34 | 1018.0 |